Dalzell, IL

12:27 PM CST on February 12, 2016 (GMT -0600)
Illinois Valley Regional-Duncan

Weather History for KVYS - October, 2010

Change the Weather History Date:

Tuesday, October 26, 2010

  Actual Average Record
Temperature  
Mean Temperature 62 °F -  
Max Temperature 69 °F 60 °F 83 °F (1963)
Min Temperature 55 °F 37 °F 23 °F (1979)
Degree Days  
Heating Degree Days 3    
Growing Degree Days 12 (Base 50)    
Moisture  
Dew Point 50 °F    
Average Humidity 68    
Maximum Humidity 88    
Minimum Humidity 52    
Precipitation  
Precipitation 0.47 in - - ()
Sea Level Pressure  
Sea Level Pressure 29.18 in    
Wind  
Wind Speed 26 mph (SW)    
Max Wind Speed 43 mph    
Max Gust Speed 58 mph    
Visibility 10 miles    
Events Rain , Thunderstorm    
Averages and records for this station are not official NWS values.
T = Trace of Precipitation, MM = Missing Value Source: NWS Daily Summary

Daily Weather History Graph

Daily Weather History Graph

Search for Another Location

Airport or City:

Trip Planner

Search our weather history database for the weather conditions in past years. The results will help you decide how hot, cold, wet, or windy it might be!

Date:

Astronomy

Oct. 26, 2010 Rise Set
Actual Time 7:20 AM CDT 5:59 PM CDT
Civil Twilight 6:52 AM CDT 6:27 PM CDT
Nautical Twilight 6:20 AM CDT 7:00 PM CDT
Astronomical Twilight 5:48 AM CDT 7:32 PM CDT
Moon 8:18 PM CDT (10/26) 11:04 AM CDT (10/26)
Length of Visible Light 11h 35m
Length of Day
10h 38m
Waning Gibbous, 87% of the Moon is Illuminated
Oct 26
Waning Gibbous
Oct 30
Last Quarter
Nov 5
New
Nov 13
First Quarter
Nov 21
Full

Hourly Weather History & Observations

Time (CDT) Temp. Dew Point Humidity Pressure Visibility Wind Dir Wind Speed Gust Speed Precip Events Conditions
12:03 AM 69.1 °F 61.7 °F 77% 29.22 in 10.0 mi SSE 24.2 mph 31.1 mph N/A   Overcast
12:23 AM 68.9 °F 61.7 °F 78% 29.21 in 10.0 mi SSE 21.9 mph 29.9 mph N/A   Overcast
12:43 AM 68.9 °F 61.9 °F 78% 29.20 in 10.0 mi SSE 26.5 mph 35.7 mph N/A   Overcast
1:03 AM 69.1 °F 61.9 °F 78% 29.17 in 10.0 mi SSE 21.9 mph 28.8 mph N/A   Overcast
1:23 AM 68.4 °F 61.7 °F 79% 29.15 in 10.0 mi SSE 24.2 mph 29.9 mph N/A   Overcast
1:43 AM 68.0 °F 61.7 °F 80% 29.15 in 10.0 mi SSE 21.9 mph 28.8 mph N/A   Overcast
2:03 AM 68.0 °F 61.3 °F 79% 29.12 in 10.0 mi SSE 23.0 mph 28.8 mph N/A   Overcast
2:23 AM 68.0 °F 60.8 °F 78% 29.12 in 10.0 mi SSE 20.7 mph 28.8 mph N/A   Overcast
2:43 AM 68.4 °F 61.2 °F 78% 29.10 in 10.0 mi SSE 24.2 mph 32.2 mph N/A   Overcast
3:03 AM 68.5 °F 61.0 °F 77% 29.08 in 10.0 mi South 19.6 mph 31.1 mph N/A   Overcast
3:23 AM 68.5 °F 61.2 °F 77% 29.06 in 10.0 mi South 19.6 mph 27.6 mph N/A   Overcast
3:43 AM 68.5 °F 61.2 °F 77% 29.04 in 10.0 mi SSE 21.9 mph 32.2 mph N/A   Overcast
4:03 AM 68.7 °F 61.2 °F 77% 29.01 in 10.0 mi SSE 24.2 mph 31.1 mph N/A   Mostly Cloudy
4:23 AM 69.1 °F 61.3 °F 76% 29.00 in 10.0 mi South 25.3 mph 33.4 mph N/A   Mostly Cloudy
4:45 AM 69.3 °F 61.7 °F 77% 28.99 in 10.0 mi South 29.9 mph 36.8 mph N/A Rain Light Rain
5:03 AM 68.0 °F 62.1 °F 81% 28.99 in 5.0 mi South 27.6 mph 38.0 mph 0.01 in Rain Light Rain
5:23 AM 67.1 °F 62.8 °F 86% 28.99 in 2.5 mi South 32.2 mph 40.3 mph 0.08 in Rain , Thunderstorm Thunderstorms and Rain
5:58 AM 64.4 °F 60.8 °F 88% 29.00 in 2.5 mi SW 25.3 mph 29.9 mph 0.46 in Rain , Thunderstorm Rain
6:03 AM 64.4 °F 60.6 °F 88% 29.00 in 5.0 mi SW 27.6 mph 33.4 mph 0.01 in Rain Light Rain
6:23 AM 65.5 °F 61.2 °F 86% 29.02 in 10.0 mi SW 27.6 mph 39.1 mph 0.01 in   Overcast
6:43 AM 63.5 °F 56.8 °F 79% 29.03 in 10.0 mi WSW 21.9 mph 32.2 mph 0.01 in   Overcast
7:03 AM 60.8 °F 55.4 °F 82% 29.05 in 10.0 mi SW 23.0 mph 26.5 mph N/A   Mostly Cloudy
7:23 AM 60.3 °F 52.7 °F 76% 29.04 in 10.0 mi WSW 20.7 mph 31.1 mph N/A   Mostly Cloudy
7:43 AM 60.3 °F 53.2 °F 78% 29.08 in 10.0 mi WSW 23.0 mph 39.1 mph N/A   Overcast
8:03 AM 59.0 °F 51.4 °F 76% 29.09 in 10.0 mi WSW 27.6 mph 33.4 mph N/A   Mostly Cloudy
8:23 AM 59.0 °F 50.0 °F 72% 29.10 in 10.0 mi WSW 27.6 mph 36.8 mph N/A   Mostly Cloudy
8:43 AM 58.5 °F 49.5 °F 72% 29.12 in 10.0 mi SW 24.2 mph 35.7 mph N/A   Overcast
9:03 AM 58.1 °F 48.7 °F 71% 29.13 in 10.0 mi SW 34.5 mph 44.9 mph N/A   Overcast
9:23 AM 58.6 °F 47.8 °F 67% 29.14 in 10.0 mi SW 29.9 mph 41.4 mph N/A   Overcast
9:43 AM 57.2 °F 46.9 °F 69% 29.15 in 10.0 mi SW 29.9 mph 43.7 mph N/A   Overcast
10:03 AM 56.1 °F 47.8 °F 74% 29.16 in 10.0 mi WSW 31.1 mph 39.1 mph N/A Rain Light Rain
10:23 AM 56.3 °F 46.9 °F 71% 29.17 in 10.0 mi WSW 38.0 mph 44.9 mph N/A   Overcast
10:43 AM 56.3 °F 44.1 °F 64% 29.18 in 10.0 mi SW 33.4 mph 41.4 mph N/A   Overcast
11:03 AM 56.8 °F 44.1 °F 62% 29.18 in 10.0 mi West 38.0 mph 57.5 mph N/A   Overcast
11:23 AM 57.0 °F 43.2 °F 60% 29.19 in 10.0 mi WSW 31.1 mph 43.7 mph N/A   Overcast
11:43 AM 57.4 °F 43.3 °F 59% 29.20 in 10.0 mi WSW 33.4 mph 47.2 mph N/A   Overcast
12:03 PM 58.5 °F 43.3 °F 57% 29.21 in 10.0 mi SW 41.4 mph 49.5 mph N/A   Overcast
12:23 PM 59.5 °F 43.2 °F 55% 29.21 in 10.0 mi WSW 42.6 mph 49.5 mph N/A   Overcast
12:43 PM 58.8 °F 42.6 °F 55% 29.21 in 10.0 mi WSW 31.1 mph 48.3 mph N/A   Overcast
1:03 PM 58.5 °F 42.4 °F 55% 29.22 in 10.0 mi WSW 32.2 mph 46.0 mph N/A   Overcast
1:23 PM 58.5 °F 42.1 °F 55% 29.22 in 10.0 mi WSW 34.5 mph 47.2 mph N/A   Overcast
1:43 PM 58.5 °F 42.1 °F 55% 29.24 in 10.0 mi WSW 28.8 mph 46.0 mph N/A   Overcast
2:03 PM 59.0 °F 42.3 °F 54% 29.24 in 10.0 mi WSW 32.2 mph 46.0 mph N/A   Overcast
2:23 PM 59.0 °F 42.4 °F 54% 29.25 in 10.0 mi WSW 27.6 mph 42.6 mph N/A   Overcast
2:43 PM 60.3 °F 42.4 °F 52% 29.26 in 10.0 mi WSW 28.8 mph 46.0 mph N/A   Overcast
3:03 PM 58.8 °F 41.5 °F 53% 29.27 in 10.0 mi WSW 32.2 mph 44.9 mph N/A   Overcast
3:23 PM 58.5 °F 42.1 °F 55% 29.29 in 10.0 mi WSW 31.1 mph 40.3 mph N/A   Overcast
3:43 PM 57.9 °F 41.5 °F 54% 29.31 in 10.0 mi WSW 28.8 mph 41.4 mph N/A   Overcast
4:03 PM 57.7 °F 40.8 °F 53% 29.33 in 10.0 mi WSW 27.6 mph 40.3 mph N/A   Overcast
4:23 PM 57.2 °F 41.0 °F 55% 29.35 in 10.0 mi WSW 25.3 mph 36.8 mph N/A   Overcast
4:43 PM 57.2 °F 40.5 °F 54% 29.36 in 10.0 mi WSW 19.6 mph 39.1 mph N/A   Overcast
5:03 PM 56.8 °F 39.6 °F 52% 29.37 in 10.0 mi WSW 29.9 mph 38.0 mph N/A   Overcast
5:23 PM 56.5 °F 39.7 °F 54% 29.38 in 10.0 mi WSW 27.6 mph 39.1 mph N/A   Overcast
5:43 PM 56.5 °F 39.9 °F 54% 29.39 in 10.0 mi WSW 24.2 mph 33.4 mph N/A   Overcast
6:03 PM 56.1 °F 39.7 °F 54% 29.39 in 10.0 mi WSW 20.7 mph 26.5 mph N/A   Mostly Cloudy
6:23 PM 55.8 °F 40.5 °F 56% 29.40 in 10.0 mi SW 19.6 mph 26.5 mph N/A   Mostly Cloudy
6:43 PM 55.8 °F 41.0 °F 58% 29.41 in 10.0 mi SW 17.3 mph 25.3 mph N/A   Overcast
7:03 PM 55.6 °F 40.8 °F 58% 29.43 in 10.0 mi SW 16.1 mph 23.0 mph N/A   Mostly Cloudy
7:23 PM 55.4 °F 41.2 °F 59% 29.44 in 10.0 mi SW 17.3 mph - N/A   Scattered Clouds
7:43 PM 55.4 °F 40.8 °F 58% 29.44 in 10.0 mi SW 18.4 mph 24.2 mph N/A   Scattered Clouds
8:03 PM 55.4 °F 40.5 °F 57% 29.45 in 10.0 mi SW 17.3 mph 24.2 mph N/A   Scattered Clouds
8:23 PM 55.4 °F 39.2 °F 54% 29.45 in 10.0 mi SW 20.7 mph 28.8 mph N/A   Clear
8:43 PM 55.8 °F 39.6 °F 55% 29.45 in 10.0 mi SW 19.6 mph 27.6 mph N/A   Clear
9:03 PM 55.4 °F 39.6 °F 55% 29.46 in 10.0 mi SW 18.4 mph - N/A   Clear
9:23 PM 55.4 °F 39.6 °F 55% 29.45 in 10.0 mi SW 18.4 mph - N/A   Clear
9:43 PM 55.8 °F 39.4 °F 54% 29.45 in 10.0 mi SW 19.6 mph 25.3 mph N/A   Clear
10:03 PM 56.3 °F 38.8 °F 52% 29.45 in 10.0 mi SW 20.7 mph 28.8 mph N/A   Clear
10:43 PM 56.1 °F 38.7 °F 52% 29.46 in 10.0 mi SSW 20.7 mph 24.2 mph N/A   Clear
11:03 PM 55.4 °F 39.2 °F 54% 29.46 in 10.0 mi SSW 20.7 mph 24.2 mph N/A   Clear
11:23 PM 56.3 °F 38.3 °F 51% 29.46 in 10.0 mi SW 19.6 mph 25.3 mph N/A   Clear
11:43 PM 57.2 °F 37.4 °F 48% 29.46 in 10.0 mi SW 21.9 mph 27.6 mph N/A   Clear